TimeEST,TemperatureF,Dew PointF,Humidity,Sea Level PressureIn,VisibilityMPH,Wind Direction,Wind SpeedMPH,Gust SpeedMPH,PrecipitationIn,Events,Conditions,WindDirDegrees,DateUTC
12:53 AM,55.0,39.9,57,30.22,10.0,NNW,12.7,21.9,N/A,,Mostly Cloudy,330,2014-01-07 05:53:00
1:53 AM,53.1,35.1,50,30.22,10.0,NNW,17.3,24.2,N/A,,Overcast,340,2014-01-07 06:53:00
2:53 AM,52.0,28.9,41,30.22,10.0,North,8.1,17.3,N/A,,Overcast,360,2014-01-07 07:53:00
3:53 AM,51.1,27.0,39,30.23,10.0,NNW,10.4,17.3,N/A,,Overcast,340,2014-01-07 08:53:00
4:53 AM,50.0,32.0,50,30.24,10.0,NNW,11.5,19.6,N/A,,Overcast,340,2014-01-07 09:53:00
5:53 AM,48.9,32.0,52,30.27,10.0,NNW,11.5,19.6,N/A,,Overcast,330,2014-01-07 10:53:00
6:53 AM,48.0,34.0,58,30.28,10.0,NNW,12.7,21.9,N/A,,Mostly Cloudy,340,2014-01-07 11:53:00
7:53 AM,48.0,35.1,61,30.29,10.0,NNW,12.7,18.4,N/A,,Overcast,340,2014-01-07 12:53:00
8:53 AM,50.0,37.9,63,30.30,10.0,NNW,11.5,19.6,N/A,,Mostly Cloudy,340,2014-01-07 13:53:00
9:53 AM,50.0,39.0,66,30.31,10.0,NNW,12.7,18.4,N/A,,Mostly Cloudy,330,2014-01-07 14:53:00
10:53 AM,53.1,42.1,66,30.30,10.0,NNW,11.5,19.6,N/A,,Mostly Cloudy,330,2014-01-07 15:53:00
11:53 AM,55.0,43.0,64,30.27,10.0,NNW,13.8,21.9,N/A,,Mostly Cloudy,330,2014-01-07 16:53:00
12:53 PM,55.0,46.0,72,30.24,10.0,NNW,12.7,21.9,0.00,,Overcast,340,2014-01-07 17:53:00
1:40 PM,53.6,44.6,72,30.23,10.0,NNW,12.7,20.7,N/A,,Overcast,340,2014-01-07 18:40:00
1:53 PM,54.0,45.0,72,30.24,10.0,NNW,16.1,23.0,0.00,Rain,Light Rain,340,2014-01-07 18:53:00
2:53 PM,55.9,46.9,72,30.24,10.0,NNW,11.5,18.4,0.00,,Overcast,340,2014-01-07 19:53:00
3:53 PM,57.0,50.0,77,30.24,10.0,North,15.0,21.9,0.00,,Overcast,350,2014-01-07 20:53:00
4:53 PM,55.9,50.0,80,30.25,10.0,North,11.5,19.6,0.00,,Overcast,360,2014-01-07 21:53:00
5:17 PM,55.4,50.0,82,30.24,10.0,NNW,11.5,19.6,N/A,,Overcast,340,2014-01-07 22:17:00
5:24 PM,55.4,48.2,77,30.24,10.0,NNW,11.5,19.6,N/A,,Overcast,340,2014-01-07 22:24:00
5:53 PM,55.9,48.9,77,30.26,10.0,NNW,12.7,20.7,N/A,,Overcast,340,2014-01-07 22:53:00
6:09 PM,55.4,50.0,82,30.25,10.0,North,11.5,18.4,0.00,Rain,Light Rain,350,2014-01-07 23:09:00
6:38 PM,55.4,48.2,77,30.26,10.0,NNW,12.7,19.6,0.00,,Overcast,340,2014-01-07 23:38:00
6:53 PM,55.0,48.9,80,30.28,10.0,NNW,8.1,24.2,0.00,,Overcast,330,2014-01-07 23:53:00
7:22 PM,55.4,48.2,77,30.27,10.0,NNW,13.8,19.6,N/A,,Overcast,330,2014-01-08 00:22:00
7:53 PM,55.0,48.9,80,30.29,10.0,NNW,10.4,16.1,N/A,,Overcast,340,2014-01-08 00:53:00
8:25 PM,53.6,48.2,82,30.29,10.0,NNW,10.4,-,0.00,Rain,Light Rain,340,2014-01-08 01:25:00
8:33 PM,53.6,48.2,82,30.29,10.0,NNW,6.9,-,0.00,Rain,Light Rain,340,2014-01-08 01:33:00
8:53 PM,54.0,48.0,80,30.30,10.0,NNW,8.1,-,0.00,,Overcast,330,2014-01-08 01:53:00
9:53 PM,52.0,46.9,83,30.31,10.0,NNW,9.2,-,N/A,,Overcast,330,2014-01-08 02:53:00
10:53 PM,52.0,46.9,83,30.31,10.0,NNW,6.9,-,0.00,Rain,Light Rain,330,2014-01-08 03:53:00
11:17 PM,51.8,46.4,82,30.30,10.0,NNW,6.9,-,0.00,Rain,Light Rain,340,2014-01-08 04:17:00
11:42 PM,51.8,48.2,88,30.29,6.0,NNW,6.9,-,0.02,Rain,Light Rain,330,2014-01-08 04:42:00
11:53 PM,51.1,48.9,92,30.30,5.0,WNW,5.8,-,0.03,Rain,Light Rain,300,2014-01-08 04:53:00